When you browse on this site, cookies collect data to enhance your experience and personalize the content and advertising you see.
Visit our Privacy Policy to learn more. By continuing to use the site, you agree to this use of cookies and data.
EN

Hourly Weather Ali

Today, 12 August, Wednesday

Time Temperature Precipitation Wind Pressure Humidity
00:00 +24°C° 0.1 mm 2 mps 708 mmHg 47%
01:00 +23°C° 0.1 mm 2 mps 708 mmHg 48%
02:00 +23°C° 0.1 mm 2 mps 708 mmHg 49%
03:00 +21°C° 0 mm 2 mps 708 mmHg 52%
04:00 +21°C° 0 mm 2 mps 708 mmHg 54%
05:00 +21°C° 0 mm 1 mps 707 mmHg 58%
06:00 +23°C° 0 mm 1 mps 708 mmHg 51%
07:00 +25°C° 0 mm 1 mps 708 mmHg 44%
08:00 +28°C° 0 mm 1 mps 709 mmHg 38%
09:00 +29°C° 0 mm 1 mps 708 mmHg 33%
10:00 +31°C° 0 mm 2 mps 708 mmHg 28%
11:00 +34°C° 0 mm 2 mps 708 mmHg 24%
12:00 +34°C° 0 mm 2 mps 708 mmHg 23%
13:00 +35°C° 0 mm 2 mps 708 mmHg 21%
14:00 +36°C° 0 mm 2 mps 708 mmHg 20%
15:00 +36°C° 0 mm 2 mps 708 mmHg 20%
16:00 +36°C° 0 mm 3 mps 708 mmHg 19%
17:00 +35°C° 0 mm 2 mps 708 mmHg 21%
18:00 +31°C° 0 mm 2 mps 708 mmHg 25%
19:00 +29°C° 0 mm 2 mps 708 mmHg 29%
20:00 +27°C° 0 mm 2 mps 709 mmHg 33%
21:00 +26°C° 0 mm 2 mps 708 mmHg 33%
22:00 +25°C° 0 mm 2 mps 708 mmHg 32%
23:00 +24°C° 0 mm 2 mps 708 mmHg 32%

Tomorrow, 13 August, Thursday

Time Temperature Precipitation Wind Pressure Humidity
00:00 +24°C° 0 mm 2 mps 708 mmHg 31%
01:00 +23°C° 0 mm 1 mps 708 mmHg 30%
02:00 +23°C° 0 mm 1 mps 708 mmHg 29%
03:00 +23°C° 0 mm 1 mps 708 mmHg 30%
04:00 +22°C° 0 mm 1 mps 708 mmHg 30%
05:00 +22°C° 0 mm 1 mps 708 mmHg 30%
06:00 +24°C° 0 mm 1 mps 709 mmHg 27%
07:00 +26°C° 0 mm 2 mps 709 mmHg 24%
08:00 +28°C° 0 mm 2 mps 710 mmHg 20%
09:00 +29°C° 0 mm 2 mps 709 mmHg 19%
10:00 +30°C° 0 mm 2 mps 709 mmHg 19%
11:00 +31°C° 0 mm 2 mps 709 mmHg 18%
12:00 +30°C° 0 mm 4 mps 709 mmHg 20%
13:00 +30°C° 0 mm 5 mps 709 mmHg 22%
14:00 +30°C° 0 mm 6 mps 709 mmHg 24%
15:00 +29°C° 0 mm 5 mps 710 mmHg 25%
16:00 +29°C° 0 mm 3 mps 710 mmHg 26%
17:00 +28°C° 0 mm 1 mps 710 mmHg 27%
18:00 +27°C° 0 mm 2 mps 710 mmHg 30%
19:00 +26°C° 0 mm 2 mps 711 mmHg 33%
20:00 +25°C° 0 mm 2 mps 711 mmHg 36%
21:00 +23°C° 0 mm 2 mps 711 mmHg 41%
22:00 +21°C° 0 mm 3 mps 711 mmHg 47%
23:00 +20°C° 0 mm 3 mps 711 mmHg 52%

Day after tomorrow, 14 August, Friday

Time Temperature Precipitation Wind Pressure Humidity
00:00 +19°C° 0 mm 3 mps 710 mmHg 53%
01:00 +19°C° 0 mm 2 mps 710 mmHg 53%
02:00 +19°C° 0 mm 1 mps 710 mmHg 54%
03:00 +19°C° 0 mm 1 mps 710 mmHg 54%
04:00 +18°C° 0 mm 1 mps 710 mmHg 54%
05:00 +17°C° 0 mm 2 mps 710 mmHg 55%
06:00 +20°C° 0 mm 2 mps 710 mmHg 47%
07:00 +24°C° 0 mm 3 mps 710 mmHg 39%
08:00 +26°C° 0 mm 3 mps 710 mmHg 31%
09:00 +28°C° 0 mm 3 mps 710 mmHg 28%
10:00 +30°C° 0 mm 3 mps 710 mmHg 25%
11:00 +31°C° 0 mm 3 mps 709 mmHg 21%
12:00 +33°C° 0 mm 3 mps 709 mmHg 20%
13:00 +34°C° 0 mm 3 mps 709 mmHg 18%
14:00 +34°C° 0 mm 3 mps 709 mmHg 17%
15:00 +34°C° 0 mm 3 mps 709 mmHg 17%
16:00 +34°C° 0 mm 3 mps 709 mmHg 17%
17:00 +34°C° 0 mm 3 mps 709 mmHg 16%
18:00 +30°C° 0 mm 3 mps 709 mmHg 20%
19:00 +27°C° 0 mm 2 mps 709 mmHg 24%
20:00 +24°C° 0 mm 2 mps 709 mmHg 27%
21:00 +24°C° 0 mm 2 mps 708 mmHg 29%
22:00 +23°C° 0 mm 2 mps 708 mmHg 30%
23:00 +22°C° 0 mm 1 mps 708 mmHg 31%

15 August, Saturday

Time Temperature Precipitation Wind Pressure Humidity
00:00 +21°C° 0 mm 1 mps 708 mmHg 32%
01:00 +21°C° 0 mm 1 mps 707 mmHg 33%
02:00 +20°C° 0 mm 1 mps 707 mmHg 34%
03:00 +20°C° 0 mm 1 mps 707 mmHg 35%
04:00 +20°C° 0 mm 1 mps 707 mmHg 36%
05:00 +19°C° 0 mm 1 mps 707 mmHg 37%
06:00 +23°C° 0 mm 1 mps 708 mmHg 32%
07:00 +26°C° 0 mm 1 mps 708 mmHg 26%
08:00 +29°C° 0 mm 1 mps 709 mmHg 20%
09:00 +31°C° 0 mm 1 mps 709 mmHg 18%
10:00 +32°C° 0 mm 2 mps 709 mmHg 16%
11:00 +35°C° 0 mm 2 mps 709 mmHg 14%
12:00 +35°C° 0 mm 2 mps 709 mmHg 14%
13:00 +36°C° 0 mm 3 mps 708 mmHg 13%
14:00 +37°C° 0 mm 3 mps 708 mmHg 12%
15:00 +37°C° 0 mm 4 mps 708 mmHg 13%
16:00 +36°C° 0 mm 5 mps 708 mmHg 13%
17:00 +35°C° 0 mm 6 mps 708 mmHg 14%
18:00 +33°C° 0 mm 5 mps 709 mmHg 17%
19:00 +29°C° 0 mm 4 mps 709 mmHg 21%
20:00 +26°C° 0 mm 3 mps 709 mmHg 24%
21:00 +25°C° 0 mm 2 mps 708 mmHg 26%
22:00 +24°C° 0 mm 2 mps 708 mmHg 29%
23:00 +22°C° 0 mm 1 mps 708 mmHg 31%

16 August, Sunday

Time Temperature Precipitation Wind Pressure Humidity
00:00 +22°C° 0 mm 1 mps 707 mmHg 33%
01:00 +21°C° 0 mm 1 mps 707 mmHg 35%
02:00 +21°C° 0 mm 1 mps 707 mmHg 38%
03:00 +20°C° 0 mm 1 mps 707 mmHg 38%
04:00 +18°C° 0 mm 0 mps 706 mmHg 38%
05:00 +18°C° 0 mm 0 mps 706 mmHg 38%
06:00 +23°C° 0 mm 1 mps 706 mmHg 32%
07:00 +26°C° 0 mm 1 mps 707 mmHg 26%
08:00 +30°C° 0 mm 1 mps 707 mmHg 19%
09:00 +32°C° 0 mm 2 mps 707 mmHg 17%
10:00 +35°C° 0 mm 3 mps 707 mmHg 15%
11:00 +36°C° 0 mm 4 mps 707 mmHg 13%
12:00 +37°C° 0 mm 3 mps 707 mmHg 13%
13:00 +38°C° 0 mm 3 mps 707 mmHg 12%
14:00 +39°C° 0 mm 3 mps 707 mmHg 11%
15:00 +38°C° 0 mm 3 mps 707 mmHg 12%
16:00 +38°C° 0 mm 2 mps 707 mmHg 12%
17:00 +37°C° 0 mm 2 mps 707 mmHg 12%
18:00 +34°C° 0 mm 2 mps 707 mmHg 16%
19:00 +30°C° 0 mm 2 mps 707 mmHg 20%
20:00 +27°C° 0 mm 2 mps 707 mmHg 24%
21:00 +27°C° 0 mm 2 mps 707 mmHg 25%
22:00 +26°C° 0 mm 2 mps 707 mmHg 26%
23:00 +26°C° 0 mm 2 mps 706 mmHg 27%

17 August, Monday

Time Temperature Precipitation Wind Pressure Humidity
00:00 +26°C° 0 mm 2 mps 706 mmHg 27%
01:00 +26°C° 0 mm 3 mps 706 mmHg 26%
02:00 +26°C° 0 mm 3 mps 706 mmHg 26%
03:00 +26°C° 0 mm 3 mps 706 mmHg 27%
04:00 +25°C° 0 mm 3 mps 706 mmHg 27%
05:00 +25°C° 0 mm 3 mps 706 mmHg 28%
06:00 +27°C° 0 mm 2 mps 706 mmHg 24%
07:00 +30°C° 0 mm 2 mps 707 mmHg 21%
08:00 +32°C° 0 mm 1 mps 707 mmHg 18%
09:00 +35°C° 0 mm 2 mps 707 mmHg 17%
10:00 +36°C° 0 mm 2 mps 707 mmHg 16%
11:00 +37°C° 0 mm 2 mps 707 mmHg 15%
12:00 +38°C° 0 mm 2 mps 706 mmHg 14%
13:00 +39°C° 0 mm 2 mps 706 mmHg 14%
14:00 +40°C° 0 mm 2 mps 706 mmHg 13%
15:00 +39°C° 0 mm 3 mps 706 mmHg 14%
16:00 +39°C° 0 mm 3 mps 705 mmHg 14%
17:00 +38°C° 0 mm 3 mps 705 mmHg 14%
18:00 +35°C° 0 mm 4 mps 705 mmHg 24%
19:00 +30°C° 0 mm 4 mps 705 mmHg 33%
20:00 +27°C° 0 mm 4 mps 706 mmHg 43%
21:00 +27°C° 0 mm 3 mps 706 mmHg 42%
22:00 +26°C° 0 mm 2 mps 706 mmHg 42%
23:00 +26°C° 0 mm 1 mps 706 mmHg 42%
Show more